Regional Weather Roundup
Issued by NWS

Home | Current Version | Previous Version | Graphics & Text | Print | Product List | Glossary On
Versions: 1 2 3 4 5 6 7 8 9 10 11 12 13 14 15 16 17 18 19 20 21 22 23 24 25 26 27 28 29 30 31 32 33 34 35 36 37 38 39 40 41 42 43 44 45 46 47 48 49 50
134
ASUS44 KLIX 240001
RWRLA
LOUISIANA WEATHER ROUNDUP
NATIONAL WEATHER SERVICE NEW ORLEANS LA
700 PM CDT WED APR 23 2014

NOTE: "FAIR" INDICATES FEW OR NO CLOUDS BELOW 12,000 FEET WITH NO
      SIGNIFICANT WEATHER AND/OR OBSTRUCTIONS TO VISIBILITY.
      SKY/WX - SKY CONDITION AND SIGNIFICANT WEATHER.
      TMP - AIR TEMPERATURE.    DP   - DEWPOINT TEMPERATURE.
      RH  - RELATIVE HUMIDITY.  PRES - PRESSURE.
      HX  - HEAT INDEX.         WCI  - WIND CHILL INDEX.

*  THESE STATIONS ARE NOT NWS OR FAA STATIONS AND ARE NOT UNDER
   NWS QUALITY CONTROL.

LAZ040-048-061>063-065-066-069-240100-
SOUTHEAST LOUISIANA

CITY           SKY/WX    TMP DP  RH WIND       PRES   REMARKS
N.O. AUDUBON     N/A     81  62  53 MISG        N/A
6HR MIN TEMP:  80; 6HR MAX TEMP:  88;

N.O. INTL ARPT PTCLDY    79  52  38 NW3       29.89S
6HR MIN TEMP:  79; 6HR MAX TEMP:  83;

N.O. LAKEFRONT CLEAR     79  57  46 CALM      29.89F
6HR MIN TEMP:  75; 6HR MAX TEMP:  81;

N.O. DOWNTOWN* FAIR      81  55  41 S6        29.90S
6HR MIN TEMP:  79; 6HR MAX TEMP:  84;

SLIDELL        CLEAR     78  54  43 SW3       29.88S
6HR MIN TEMP:  78; 6HR MAX TEMP:  82;

BATON ROUGE    CLEAR     82  56  40 CALM      29.87S
6HR MIN TEMP:  82; 6HR MAX TEMP:  87;

BOOTHVILLE     CLEAR     75  65  70 SW6       29.91S
6HR MIN TEMP:  75; 6HR MAX TEMP:  79;

BELLE CHASSE   MOCLDY    76  63  64 S12       29.89S
6HR MIN TEMP:  76; 6HR MAX TEMP:  83;

BOGALUSA*        N/A     80  59  48 CALM      29.89S
6HR MIN TEMP:  80; 6HR MAX TEMP:  86;

GALLIANO*      CLEAR     76  64  64 S7        29.91S
6HR MIN TEMP:  76; 6HR MAX TEMP:  83;

NEW ROADS*     NOT AVBL
GONZALES*      FAIR      78  62  59 CALM      29.87S
6HR MIN TEMP:  78; 6HR MAX TEMP:  84;

HAMMOND*       NOT AVBL
HOUMA*         NOT AVBL
PORT FOURCHON* CLEAR     75  64  69 S8        29.93R

$$

LAZ041-044-053-054-240100-
SOUTHWEST LOUISIANA

CITY           SKY/WX    TMP DP  RH WIND       PRES   REMARKS
LAKE CHARLES   CLEAR     75  63  66 S9        29.88S
6HR MIN TEMP:  75; 6HR MAX TEMP:  82;

LAFAYETTE      CLEAR     77  62  59 S10       29.88S
6HR MIN TEMP:  77; 6HR MAX TEMP:  84;

PATTERSON      CLEAR     73  64  73 SW10      29.93S
6HR MIN TEMP:  73; 6HR MAX TEMP:  84;

SALT POINT       N/A     76  67  73 CALM      29.90S
6HR MIN TEMP:  76; 6HR MAX TEMP:  81;

NEW IBERIA     CLEAR     76  63  64 S13       29.89S
6HR MIN TEMP:  76; 6HR MAX TEMP:  84; 6HR PCP: TRACE;

CHENAULT AIRPK CLEAR     77  61  57 S14       29.89S

$$

LAZ027-028-240100-
CENTRAL LOUISIANA

CITY           SKY/WX    TMP DP  RH WIND       PRES   REMARKS
FORT POLK      PTCLDY    79  57  46 SE7       29.85F
6HR MIN TEMP:  77; 6HR MAX TEMP:  84;

ALEXANDRIA INT CLEAR     78  55  44 E6        29.85S
6HR MIN TEMP:  78; 6HR MAX TEMP:  84;

ALEXANDRIA     CLEAR     81  55  40 CALM      29.87S
6HR MIN TEMP:  81; 6HR MAX TEMP:  86;


$$

LAZ001-002-240100-
NORTHWEST LOUISIANA

CITY           SKY/WX    TMP DP  RH WIND       PRES   REMARKS
SHREVEPORT     PTCLDY    80  58  46 SE7       29.84S
6HR MIN TEMP:  79; 6HR MAX TEMP:  86;

BARKSDALE AFB  NOT AVBL
DTN SHREVEPORT CLEAR     77  56  48 SE8       29.84S
6HR MIN TEMP:  77; 6HR MAX TEMP:  82;


$$

LAZ014-016-240100-
NORTHEAST LOUISIANA

CITY           SKY/WX    TMP DP  RH WIND       PRES   REMARKS
MONROE         CLEAR     77  51  40 CALM      29.89F
6HR MIN TEMP:  77; 6HR MAX TEMP:  83;

TALLULAH       CLEAR     78  45  30 N3        29.89S
6HR MIN TEMP:  78; 6HR MAX TEMP:  82;


$$




USA.gov is the U.S. government's official web portal to all federal, state and local government web resources and services.